User: anonymous   Login
Location: Kelshall
(52.0000°N, 0.0500°W)
Time: 03:13:10
(UTC+00:00)
Language:

CRYOSAT 2 - Orbit

View from above orbital plane
View from above orbital plane
View from above satellite
View from above satellite

Ground track
Ground track

The orbit data is extracted from the following two-line orbital elements,

1 36508U 10013A   20332.73302024 -.00000009 +00000-0 -29165-5 0  9997
2 36508 092.0157 147.2369 0006987 034.7892 325.3771 14.51904200563966
Epoch (UTC): 27 November 2020 17:35:32
Eccentricity: 0.0006987
inclination: 92.0157°
perigee height: 714 km
apogee height: 724 km
right ascension of ascending node: 147.2369°
argument of perigee: 34.7892°
revolutions per day: 14.51904200
mean anomaly at epoch: 325.3771°
orbit number at epoch: 56396

The dashed part of the orbit path shows where the satellite is in the earth's shadow,  

DLR